Regional Weather Roundup
Issued by NWS Little Rock, AR

Home | Current Version | Previous Version | Graphics & Text | Print | Product List | Glossary On
Versions: 1 2 3 4 5 6 7 8 9 10 11 12 13 14 15 16 17 18 19 20 21 22 23 24 25 26 27 28 29 30 31 32
000
ASUS44 KLZK 282105
RWRLZK

WEATHER ROUNDUP FOR ARKANSAS
NATIONAL WEATHER SERVICE LITTLE ROCK AR
400 PM CDT WED SEP 28 2016

NOTE: "FAIR" INDICATES FEW OR NO CLOUDS BELOW 12,000 FEET WITH NO
SIGNIFICANT WEATHER AND/OR OBSTRUCTIONS TO VISIBILITY.

ARZ001-003-010-029-282200-
NORTHWEST ARKANSAS

CITY           SKY/WX    TMP DP  RH WIND       PRES   REMARKS
FAYETTEVILLE   SUNNY     77  51  40 NW10G17   30.03R
FORT SMITH     SUNNY     89  44  20 N15G22    29.96R HX  86
HARRISON       SUNNY     77  42  28 NW10      30.02R
BENTONVILLE    SUNNY     75  39  27 N13G20    30.05R
ROGERS         SUNNY     74  42  31 NW13      30.06R
SILOAM SPGS    SUNNY     79  39  24 NW18      30.05R
HIGHFILL       SUNNY     78  42  27 N15       30.04R
SPRINGDALE     SUNNY     79  39  24 N16       30.05R
$$

ARZ004-005-016-282200-
NORTH CENTRAL ARKANSAS

CITY           SKY/WX    TMP DP  RH WIND       PRES   REMARKS
BATESVILLE     SUNNY     82  54  36 NW9G22    29.93R
FLIPPIN        SUNNY     81  39  22 N12G21    29.97R
MTN HOME       SUNNY     78  41  26 N8        29.98R
$$

ARZ040-041-282200-
WEST CENTRAL ARKANSAS

CITY           SKY/WX    TMP DP  RH WIND       PRES   REMARKS
MENA           SUNNY    N/A N/A N/A W10G17    29.98S
MOUNT IDA      SUNNY     89  54  30 VRB7      29.93S HX  87
$$

ARZ009-017-025-026-028-282200-
NORTHEAST ARKANSAS

CITY           SKY/WX    TMP DP  RH WIND       PRES   REMARKS
CORNING          N/A     81  48  32 N18       29.94R
JONESBORO      MOSUNNY   84  54  35 N10G18    29.90R
NEWPORT        SUNNY     84  56  38 N16       29.91R
WALNUT RIDGE   SUNNY     82  48  30 NW18      29.92R
BLYTHEVILLE    SUNNY     85  56  37 N10G18    29.89R
NW BLYTHEVILLE MOSUNNY   82  54  36 NW15G25   29.89
$$

ARZ022-023-033-042-044-282200-
CENTRAL ARKANSAS

CITY           SKY/WX    TMP DP  RH WIND       PRES   REMARKS
LITTLE ROCK    MOSUNNY   91  53  27 NW14G23   29.89F HX  88
N LITTLE ROCK    N/A     87  56  34 N8G16     29.89S HX  85
JACKSONVILLE   SUNNY     89  54  30 NW13G21   29.90S HX  87
SEARCY         SUNNY     87  59  38 N7        29.91  HX  86
HOT SPRINGS    SUNNY     90  52  27 W13G18    29.92S HX  87
RUSSELLVILLE   SUNNY     85  56  37 W7        29.93S
$$

ARZ036-282200-
EAST ARKANSAS

CITY           SKY/WX    TMP DP  RH WIND       PRES   REMARKS
WEST MEMPHIS   SUNNY     88  51  28 NW10G23   29.86R HX  85
$$

ARZ050-053-066-070-073-282200-
SOUTHWEST ARKANSAS

CITY           SKY/WX    TMP DP  RH WIND       PRES   REMARKS
ARKADELPHIA    FAIR      87  60  40 SW13G18   29.93F HX  87
TEXARKANA      SUNNY     90  52  27 W14       29.96F HX  87
EL DORADO      SUNNY     85  56  37 SW9       29.96F
DE QUEEN       SUNNY     88  55  32 W14       29.94S HX  86
$$

ARZ056-057-069-282200-
SOUTHEAST ARKANSAS

CITY           SKY/WX    TMP DP  RH WIND       PRES   REMARKS
PINE BLUFF     SUNNY     86  54  33 SW14      29.91F
STUTTGART      SUNNY     90  54  29 W15       29.90S HX  87
MONTICELLO     SUNNY     86  52  30 SW8       29.93F

$$






USA.gov is the U.S. government's official web portal to all federal, state and local government web resources and services.